Starlink 3167

decayed
NORAD ID: 51460 Int'l Des: 2022-010 Owner: SPXS Country: US Constellation: starlink
LEOCIRCULAR
グループ

Starlink 3167について

説明を読み込み中...

高度履歴

Altitude vs Time

uPlot chart will show altitude changes over time

軌道要素

1 51460U 22010E 24359.27120485 .24016082 12662-4 34259-3 0 9993
2 51460 53.1964 72.5211 0004450 344.3444 119.4003 16.48691108161104
Epoch: Dec 24, 2024 • Age: 8350 hours

現在のステータス

Position data unavailable
打ち上げ日 Feb 3, 2022
運用期間 3.8 years
落下予定日 Dec 24, 2024
タイプ internet

技術仕様

分類 Payload
質量 297.00 kg
乾燥質量 275.00 kg
総質量 297.00 kg
長さ 0.20 m
直径 2.80 m
スパン 9.00 m
形状 Box + pan
製造者 SPXS
バスタイプ Starlink
フェーズステータス Unknown Transfer Status
所有者/国 SPXS/US

大規模コンステレーション

Loading constellations...